Location: Unspecified
(50.7693°N, 0.0000°E)
Time: 12:38:09
(UTC+00:00)

Transit 2A - Pass Details

Date: 30 June 2019
Orbit: 597 x 962 km, 66.7° (Epoch: 19 August)

Event Time Altitude Azimuth Distance (km) Brightness Sun altitude
Rises 04:33:58 0° 318° (NW) 3,543 9.3 4.8°
Reaches altitude 10° 04:37:07 10° 332° (NNW) 2,545 8.8 5.2°
Maximum altitude 04:41:46 23° 24° (NNE) 1,688 8.7 5.8°
Drops below altitude 10° 04:46:04 10° 77° (ENE) 2,344 10.4 6.4°
Sets 04:48:50 0° 92° (E) 3,200 10.4 6.8°
